LOCATION_NAME,SAMPLE COLLECTION TIME,DOSE EQUIVALENT RATE (nSv/h),GAMMA COUNT RATE R02 (CPM),GAMMA COUNT RATE R03 (CPM),GAMMA COUNT RATE R04 (CPM),GAMMA COUNT RATE R05 (CPM),GAMMA COUNT RATE R06 (CPM),GAMMA COUNT RATE R07 (CPM),GAMMA COUNT RATE R08 (CPM),GAMMA COUNT RATE R09 (CPM),STATUS
IL: AURORA,01/05/2015 17:00:00,,1850.00,926.00,265.00,124.00,83.00,112.00,47.00,31.00,APPROVED
IL: AURORA,01/05/2015 18:01:00,,1878.00,968.00,278.00,127.00,86.00,117.00,48.00,32.00,APPROVED
IL: AURORA,01/05/2015 19:01:00,,1864.00,967.00,279.00,131.00,87.00,114.00,51.00,31.00,APPROVED
IL: AURORA,01/05/2015 20:01:00,,1848.00,947.00,274.00,130.00,89.00,112.00,51.00,33.00,APPROVED
IL: AURORA,01/06/2015 17:38:00,,1845.00,1044.00,291.00,156.00,92.00,115.00,69.00,35.00,APPROVED
IL: AURORA,01/06/2015 18:09:00,,1830.00,1038.00,286.00,164.00,89.00,115.00,68.00,35.00,APPROVED
IL: AURORA,01/06/2015 19:16:00,,1785.00,979.00,271.00,143.00,85.00,105.00,64.00,31.00,APPROVED
IL: AURORA,01/06/2015 20:16:00,,1813.00,1025.00,281.00,154.00,90.00,113.00,67.00,32.00,APPROVED
IL: AURORA,01/06/2015 21:16:00,,1805.00,1038.00,285.00,160.00,92.00,116.00,68.00,33.00,APPROVED
IL: AURORA,01/06/2015 22:17:00,,1815.00,1046.00,284.00,164.00,93.00,115.00,67.00,35.00,APPROVED
IL: AURORA,01/06/2015 23:17:00,,1830.00,1046.00,292.00,164.00,93.00,116.00,64.00,32.00,APPROVED
IL: AURORA,01/07/2015 00:17:00,,1834.00,1059.00,293.00,161.00,91.00,116.00,68.00,33.00,APPROVED
IL: AURORA,01/07/2015 01:17:00,,1842.00,1056.00,295.00,162.00,92.00,120.00,70.00,33.00,APPROVED
IL: AURORA,01/07/2015 02:18:00,,1839.00,1058.00,293.00,164.00,94.00,122.00,68.00,33.00,APPROVED
IL: AURORA,01/07/2015 03:18:00,,1855.00,1076.00,300.00,170.00,93.00,122.00,69.00,33.00,APPROVED
IL: AURORA,01/07/2015 04:18:00,,1851.00,1076.00,294.00,164.00,94.00,122.00,70.00,33.00,APPROVED
IL: AURORA,01/07/2015 05:18:00,,1854.00,1073.00,301.00,163.00,95.00,119.00,70.00,35.00,APPROVED
IL: AURORA,01/07/2015 06:18:00,,1862.00,1073.00,296.00,163.00,96.00,123.00,69.00,33.00,APPROVED
IL: AURORA,01/07/2015 07:19:00,,1851.00,1060.00,297.00,161.00,93.00,119.00,67.00,34.00,APPROVED
IL: AURORA,01/07/2015 08:19:00,,1820.00,1038.00,292.00,156.00,90.00,117.00,68.00,33.00,APPROVED
IL: AURORA,01/07/2015 09:19:00,,1804.00,1032.00,286.00,156.00,93.00,116.00,65.00,33.00,APPROVED
IL: AURORA,01/07/2015 10:19:00,,1758.00,985.00,277.00,145.00,89.00,109.00,63.00,32.00,APPROVED
IL: AURORA,01/07/2015 11:19:00,,1727.00,960.00,272.00,141.00,86.00,109.00,60.00,31.00,APPROVED
IL: AURORA,01/07/2015 12:20:00,,1712.00,949.00,267.00,140.00,83.00,106.00,62.00,31.00,APPROVED
IL: AURORA,01/07/2015 13:20:00,,1704.00,930.00,261.00,135.00,83.00,106.00,61.00,30.00,APPROVED
IL: AURORA,01/07/2015 14:20:00,,1681.00,912.00,259.00,132.00,81.00,105.00,59.00,31.00,APPROVED
IL: AURORA,01/07/2015 15:20:00,,1666.00,897.00,255.00,130.00,81.00,102.00,57.00,29.00,APPROVED
IL: AURORA,01/07/2015 16:21:00,,1656.00,880.00,252.00,127.00,80.00,100.00,56.00,30.00,APPROVED
IL: AURORA,01/07/2015 17:21:00,,1642.00,878.00,250.00,128.00,79.00,99.00,57.00,29.00,APPROVED
IL: AURORA,01/07/2015 18:21:00,,1649.00,874.00,252.00,130.00,81.00,99.00,59.00,29.00,APPROVED
IL: AURORA,01/07/2015 19:21:00,,1652.00,876.00,249.00,126.00,79.00,97.00,56.00,30.00,APPROVED
IL: AURORA,01/07/2015 20:21:00,,1653.00,879.00,247.00,127.00,80.00,99.00,54.00,30.00,APPROVED
IL: AURORA,01/07/2015 21:22:00,,1653.00,878.00,248.00,126.00,79.00,97.00,58.00,29.00,APPROVED
IL: AURORA,01/07/2015 22:22:00,,1642.00,873.00,252.00,128.00,79.00,98.00,57.00,29.00,APPROVED
IL: AURORA,01/07/2015 23:22:00,,1650.00,881.00,252.00,127.00,78.00,101.00,57.00,29.00,APPROVED
IL: AURORA,01/08/2015 00:22:00,,1655.00,887.00,251.00,128.00,81.00,101.00,57.00,28.00,APPROVED
IL: AURORA,01/08/2015 01:23:00,,1678.00,898.00,250.00,129.00,82.00,102.00,57.00,30.00,APPROVED
IL: AURORA,01/08/2015 02:23:00,,1678.00,919.00,260.00,131.00,83.00,104.00,59.00,31.00,APPROVED
IL: AURORA,01/08/2015 03:23:00,,1707.00,923.00,263.00,134.00,84.00,104.00,57.00,31.00,APPROVED
IL: AURORA,01/08/2015 04:23:00,,1714.00,930.00,268.00,135.00,83.00,105.00,58.00,29.00,APPROVED
IL: AURORA,01/08/2015 05:23:00,,1723.00,935.00,262.00,138.00,83.00,106.00,61.00,30.00,APPROVED
IL: AURORA,01/08/2015 06:24:00,,1728.00,946.00,267.00,137.00,86.00,108.00,58.00,30.00,APPROVED
IL: AURORA,01/08/2015 07:24:00,,1734.00,953.00,265.00,137.00,86.00,107.00,60.00,31.00,APPROVED
IL: AURORA,01/08/2015 08:24:00,,1744.00,959.00,273.00,139.00,85.00,112.00,62.00,30.00,APPROVED
IL: AURORA,01/08/2015 09:24:00,,1751.00,962.00,280.00,135.00,86.00,111.00,56.00,31.00,APPROVED
IL: AURORA,01/08/2015 10:24:00,,1748.00,952.00,279.00,132.00,86.00,112.00,50.00,31.00,APPROVED
IL: AURORA,01/08/2015 11:25:00,,1757.00,950.00,277.00,128.00,87.00,117.00,54.00,30.00,APPROVED
IL: AURORA,01/08/2015 12:25:00,,1748.00,959.00,276.00,130.00,85.00,112.00,51.00,30.00,APPROVED
IL: AURORA,01/08/2015 13:25:00,,1753.00,951.00,282.00,131.00,85.00,116.00,51.00,30.00,APPROVED
IL: AURORA,01/08/2015 14:25:00,,1758.00,937.00,271.00,126.00,84.00,112.00,52.00,31.00,APPROVED
IL: AURORA,01/08/2015 15:26:00,,1752.00,930.00,271.00,128.00,84.00,114.00,48.00,30.00,APPROVED
IL: AURORA,01/08/2015 16:26:00,,1746.00,930.00,268.00,126.00,82.00,112.00,47.00,30.00,APPROVED
IL: AURORA,01/08/2015 17:26:00,,1745.00,924.00,272.00,126.00,83.00,110.00,47.00,30.00,APPROVED
IL: AURORA,01/08/2015 18:26:00,,1750.00,923.00,272.00,125.00,82.00,110.00,47.00,29.00,APPROVED
IL: AURORA,01/08/2015 19:26:00,,1792.00,950.00,284.00,129.00,85.00,116.00,49.00,30.00,APPROVED
IL: AURORA,01/08/2015 20:27:00,,1881.00,1041.00,310.00,140.00,92.00,125.00,51.00,30.00,APPROVED
IL: AURORA,01/08/2015 23:27:00,,1790.00,960.00,285.00,132.00,87.00,117.00,47.00,31.00,APPROVED
IL: AURORA,01/09/2015 00:28:00,,1843.00,1008.00,294.00,134.00,89.00,122.00,52.00,30.00,APPROVED
IL: AURORA,01/09/2015 01:28:00,,1837.00,1008.00,300.00,136.00,88.00,123.00,50.00,32.00,APPROVED
IL: AURORA,01/09/2015 02:28:00,,1813.00,990.00,296.00,136.00,87.00,121.00,49.00,32.00,APPROVED
IL: AURORA,01/09/2015 03:28:00,,1844.00,1013.00,302.00,139.00,88.00,125.00,52.00,31.00,APPROVED
IL: AURORA,01/09/2015 04:28:00,,1900.00,1076.00,320.00,146.00,94.00,133.00,51.00,33.00,APPROVED
IL: AURORA,01/09/2015 05:29:00,,1874.00,1063.00,322.00,146.00,94.00,134.00,54.00,32.00,APPROVED
IL: AURORA,01/09/2015 06:29:00,,1843.00,1031.00,313.00,146.00,93.00,127.00,51.00,33.00,APPROVED
IL: AURORA,01/09/2015 07:29:00,,1778.00,972.00,295.00,136.00,85.00,121.00,50.00,32.00,APPROVED
IL: AURORA,01/09/2015 08:29:00,,1744.00,934.00,278.00,128.00,83.00,116.00,47.00,30.00,APPROVED
IL: AURORA,01/09/2015 09:29:00,,1799.00,969.00,285.00,130.00,84.00,117.00,49.00,31.00,APPROVED
IL: AURORA,01/09/2015 10:30:00,,1784.00,982.00,293.00,134.00,86.00,121.00,50.00,31.00,APPROVED
IL: AURORA,01/09/2015 11:30:00,,1748.00,952.00,279.00,131.00,86.00,116.00,48.00,31.00,APPROVED
IL: AURORA,01/09/2015 12:30:00,,1736.00,933.00,276.00,130.00,84.00,117.00,49.00,31.00,APPROVED
IL: AURORA,01/09/2015 13:30:00,,1723.00,931.00,274.00,128.00,84.00,114.00,48.00,29.00,APPROVED
IL: AURORA,01/09/2015 14:31:00,,1712.00,918.00,272.00,126.00,83.00,115.00,46.00,30.00,APPROVED
IL: AURORA,01/09/2015 15:31:00,,1710.00,913.00,266.00,128.00,83.00,111.00,48.00,30.00,APPROVED
IL: AURORA,01/09/2015 16:31:00,,1702.00,911.00,272.00,124.00,83.00,114.00,47.00,31.00,APPROVED
IL: AURORA,01/09/2015 17:31:00,,1716.00,921.00,270.00,130.00,84.00,113.00,47.00,29.00,APPROVED
IL: AURORA,01/09/2015 18:31:00,,1745.00,951.00,278.00,130.00,84.00,119.00,49.00,30.00,APPROVED
IL: AURORA,01/09/2015 19:32:00,,1737.00,945.00,280.00,129.00,86.00,116.00,48.00,31.00,APPROVED
IL: AURORA,01/09/2015 20:32:00,,1717.00,933.00,275.00,130.00,83.00,116.00,49.00,31.00,APPROVED
IL: AURORA,01/09/2015 21:32:00,,1706.00,916.00,272.00,125.00,84.00,112.00,47.00,30.00,APPROVED
IL: AURORA,01/09/2015 22:32:00,,1705.00,898.00,266.00,123.00,82.00,109.00,46.00,30.00,APPROVED
IL: AURORA,01/09/2015 23:33:00,,1701.00,900.00,264.00,125.00,83.00,111.00,48.00,31.00,APPROVED
IL: AURORA,01/10/2015 00:33:00,,1699.00,908.00,263.00,122.00,81.00,110.00,46.00,30.00,APPROVED
IL: AURORA,01/10/2015 01:33:00,,1708.00,905.00,264.00,125.00,81.00,112.00,44.00,31.00,APPROVED
IL: AURORA,01/10/2015 02:33:00,,1710.00,903.00,270.00,125.00,82.00,111.00,45.00,30.00,APPROVED
IL: AURORA,01/10/2015 03:33:00,,1719.00,915.00,272.00,123.00,83.00,110.00,46.00,30.00,APPROVED
IL: AURORA,01/10/2015 04:34:00,,1730.00,927.00,275.00,126.00,83.00,114.00,47.00,28.00,APPROVED
IL: AURORA,01/10/2015 05:34:00,,1743.00,925.00,275.00,128.00,84.00,115.00,46.00,31.00,APPROVED
IL: AURORA,01/10/2015 06:34:00,,1750.00,945.00,278.00,128.00,84.00,117.00,49.00,29.00,APPROVED
IL: AURORA,01/10/2015 07:34:00,,1774.00,957.00,283.00,131.00,88.00,119.00,49.00,30.00,APPROVED
IL: AURORA,01/10/2015 08:34:00,,1781.00,972.00,288.00,132.00,87.00,121.00,49.00,31.00,APPROVED
IL: AURORA,01/10/2015 09:35:00,,1784.00,976.00,287.00,137.00,87.00,118.00,50.00,30.00,APPROVED
IL: AURORA,01/10/2015 10:35:00,,1785.00,988.00,293.00,138.00,90.00,119.00,51.00,31.00,APPROVED
IL: AURORA,01/10/2015 11:35:00,,1800.00,991.00,292.00,137.00,89.00,123.00,51.00,31.00,APPROVED
IL: AURORA,01/10/2015 12:35:00,,1799.00,991.00,297.00,139.00,89.00,123.00,52.00,31.00,APPROVED
IL: AURORA,01/10/2015 13:36:00,,1805.00,993.00,298.00,139.00,90.00,123.00,51.00,30.00,APPROVED
IL: AURORA,01/10/2015 14:36:00,,1797.00,997.00,297.00,137.00,86.00,125.00,50.00,32.00,APPROVED
IL: AURORA,01/10/2015 15:36:00,,1796.00,1000.00,301.00,138.00,88.00,120.00,51.00,32.00,APPROVED
IL: AURORA,01/10/2015 16:36:00,,1801.00,990.00,296.00,140.00,90.00,121.00,51.00,32.00,APPROVED
IL: AURORA,01/10/2015 17:36:00,,1790.00,979.00,292.00,133.00,88.00,121.00,48.00,31.00,APPROVED
IL: AURORA,01/10/2015 18:37:00,,1754.00,951.00,283.00,131.00,86.00,119.00,46.00,31.00,APPROVED
IL: AURORA,01/10/2015 19:37:00,,1745.00,931.00,276.00,129.00,83.00,117.00,45.00,30.00,APPROVED
IL: AURORA,01/10/2015 20:37:00,,1741.00,932.00,280.00,128.00,84.00,116.00,45.00,31.00,APPROVED
IL: AURORA,01/10/2015 21:37:00,,1732.00,928.00,276.00,127.00,83.00,116.00,46.00,30.00,APPROVED
IL: AURORA,01/10/2015 22:38:00,,1725.00,920.00,272.00,128.00,83.00,115.00,45.00,30.00,APPROVED
IL: AURORA,01/10/2015 23:38:00,,1717.00,905.00,272.00,128.00,80.00,115.00,45.00,30.00,APPROVED
IL: AURORA,01/11/2015 00:38:00,,1707.00,899.00,270.00,125.00,82.00,116.00,44.00,31.00,APPROVED
IL: AURORA,01/11/2015 01:38:00,,1709.00,903.00,269.00,126.00,84.00,112.00,43.00,31.00,APPROVED
IL: AURORA,01/11/2015 02:38:00,,1710.00,907.00,273.00,121.00,84.00,113.00,45.00,29.00,APPROVED
IL: AURORA,01/11/2015 03:39:00,,1705.00,903.00,272.00,125.00,81.00,117.00,43.00,29.00,APPROVED
IL: AURORA,01/11/2015 04:40:00,,1695.00,900.00,274.00,125.00,84.00,115.00,44.00,31.00,APPROVED
IL: AURORA,01/11/2015 05:40:00,,1700.00,904.00,273.00,124.00,84.00,113.00,45.00,30.00,APPROVED
IL: AURORA,01/11/2015 06:40:00,,1706.00,908.00,274.00,127.00,83.00,116.00,43.00,31.00,APPROVED
IL: AURORA,01/11/2015 07:41:00,,1705.00,907.00,275.00,124.00,84.00,117.00,44.00,29.00,APPROVED
IL: AURORA,01/11/2015 08:41:00,,1712.00,913.00,276.00,127.00,82.00,115.00,44.00,30.00,APPROVED
IL: AURORA,01/11/2015 09:41:00,,1718.00,917.00,276.00,125.00,84.00,112.00,43.00,30.00,APPROVED
IL: AURORA,01/11/2015 10:41:00,,1737.00,922.00,277.00,126.00,84.00,117.00,44.00,30.00,APPROVED
IL: AURORA,01/11/2015 11:41:00,,1722.00,930.00,280.00,128.00,84.00,117.00,43.00,30.00,APPROVED
IL: AURORA,01/11/2015 12:42:00,,1729.00,932.00,280.00,129.00,85.00,120.00,46.00,32.00,APPROVED
IL: AURORA,01/11/2015 13:42:00,,1730.00,931.00,286.00,132.00,84.00,118.00,45.00,30.00,APPROVED
IL: AURORA,01/11/2015 14:42:00,,1733.00,941.00,284.00,131.00,86.00,121.00,46.00,32.00,APPROVED
IL: AURORA,01/11/2015 15:42:00,,1739.00,944.00,282.00,132.00,86.00,117.00,46.00,30.00,APPROVED
IL: AURORA,01/11/2015 16:42:00,,1730.00,943.00,285.00,131.00,86.00,119.00,45.00,30.00,APPROVED
IL: AURORA,01/11/2015 17:43:00,,1716.00,938.00,290.00,131.00,87.00,120.00,47.00,30.00,APPROVED
IL: AURORA,01/11/2015 18:43:00,,1706.00,935.00,287.00,132.00,86.00,122.00,44.00,31.00,APPROVED
IL: AURORA,01/11/2015 19:43:00,,1709.00,927.00,291.00,130.00,87.00,122.00,45.00,31.00,APPROVED
IL: AURORA,01/11/2015 20:43:00,,1698.00,933.00,293.00,134.00,86.00,122.00,45.00,30.00,APPROVED
IL: AURORA,01/11/2015 21:44:00,,1706.00,936.00,292.00,133.00,86.00,119.00,46.00,30.00,APPROVED
IL: AURORA,01/11/2015 22:44:00,,1762.00,985.00,305.00,136.00,90.00,126.00,48.00,31.00,APPROVED
IL: AURORA,01/11/2015 23:44:00,,1881.00,1074.00,336.00,149.00,97.00,136.00,54.00,32.00,APPROVED
IL: AURORA,01/12/2015 00:44:00,,1820.00,1023.00,321.00,143.00,91.00,131.00,48.00,32.00,APPROVED
IL: AURORA,01/12/2015 01:44:00,,1874.00,1082.00,340.00,150.00,95.00,136.00,53.00,33.00,APPROVED
IL: AURORA,01/12/2015 02:45:00,,1887.00,1081.00,344.00,147.00,99.00,137.00,53.00,32.00,APPROVED
IL: AURORA,01/12/2015 03:45:00,,1906.00,1096.00,347.00,150.00,98.00,140.00,53.00,32.00,APPROVED
IL: AURORA,01/12/2015 04:45:00,,1838.00,1036.00,330.00,142.00,93.00,132.00,52.00,32.00,APPROVED
IL: AURORA,01/12/2015 05:45:00,,1819.00,1033.00,327.00,143.00,96.00,131.00,51.00,31.00,APPROVED
IL: AURORA,01/12/2015 06:46:00,,1862.00,1081.00,340.00,147.00,98.00,137.00,53.00,33.00,APPROVED
IL: AURORA,01/12/2015 07:46:00,,1820.00,1044.00,331.00,146.00,96.00,133.00,53.00,32.00,APPROVED
IL: AURORA,01/12/2015 08:46:00,,1785.00,1018.00,324.00,143.00,92.00,132.00,50.00,32.00,APPROVED
IL: AURORA,01/12/2015 09:46:00,,1778.00,1031.00,325.00,143.00,95.00,135.00,53.00,32.00,APPROVED
IL: AURORA,01/12/2015 10:46:00,,1788.00,1037.00,332.00,143.00,91.00,136.00,51.00,33.00,APPROVED
IL: AURORA,01/12/2015 11:47:00,,1777.00,1001.00,318.00,142.00,92.00,130.00,50.00,31.00,APPROVED
IL: AURORA,01/12/2015 12:47:00,,1710.00,933.00,290.00,131.00,84.00,120.00,47.00,31.00,APPROVED
IL: AURORA,01/12/2015 13:47:00,,1687.00,911.00,280.00,125.00,84.00,116.00,46.00,30.00,APPROVED
IL: AURORA,01/12/2015 14:47:00,,1683.00,892.00,267.00,124.00,81.00,113.00,44.00,31.00,APPROVED
IL: AURORA,01/12/2015 15:47:00,,1681.00,898.00,267.00,126.00,81.00,112.00,44.00,30.00,APPROVED
IL: AURORA,01/12/2015 16:48:00,,1694.00,900.00,272.00,124.00,79.00,112.00,45.00,30.00,APPROVED
IL: AURORA,01/12/2015 17:48:00,,1667.00,886.00,269.00,123.00,80.00,110.00,43.00,30.00,APPROVED
IL: AURORA,01/12/2015 18:48:00,,1621.00,853.00,259.00,116.00,80.00,106.00,42.00,29.00,APPROVED
IL: AURORA,01/12/2015 19:48:00,,1615.00,866.00,248.00,127.00,78.00,97.00,58.00,30.00,APPROVED
IL: AURORA,01/12/2015 20:49:00,,1606.00,869.00,247.00,129.00,79.00,96.00,61.00,32.00,APPROVED
IL: AURORA,01/12/2015 21:49:00,,1587.00,869.00,243.00,124.00,78.00,97.00,59.00,31.00,APPROVED
IL: AURORA,01/12/2015 22:49:00,,1602.00,861.00,246.00,128.00,78.00,98.00,59.00,30.00,APPROVED
IL: AURORA,01/12/2015 23:49:00,,1620.00,880.00,246.00,129.00,76.00,98.00,60.00,30.00,APPROVED
IL: AURORA,01/13/2015 00:49:00,,1637.00,893.00,247.00,135.00,80.00,98.00,62.00,31.00,APPROVED
IL: AURORA,01/13/2015 01:50:00,,1666.00,913.00,250.00,134.00,81.00,101.00,62.00,32.00,APPROVED
IL: AURORA,01/13/2015 02:50:00,,1664.00,928.00,258.00,137.00,84.00,102.00,62.00,32.00,APPROVED
IL: AURORA,01/13/2015 03:50:00,,1665.00,922.00,257.00,140.00,83.00,104.00,62.00,33.00,APPROVED
IL: AURORA,01/13/2015 04:50:00,,1663.00,916.00,257.00,142.00,80.00,100.00,62.00,32.00,APPROVED
IL: AURORA,01/13/2015 05:51:00,,1667.00,911.00,256.00,140.00,83.00,101.00,61.00,30.00,APPROVED
IL: AURORA,01/13/2015 06:51:00,,1646.00,906.00,251.00,134.00,82.00,100.00,61.00,31.00,APPROVED
IL: AURORA,01/13/2015 07:51:00,,1657.00,912.00,253.00,136.00,81.00,97.00,61.00,31.00,APPROVED
IL: AURORA,01/13/2015 08:51:00,,1646.00,900.00,250.00,134.00,81.00,101.00,61.00,31.00,APPROVED
IL: AURORA,01/13/2015 09:51:00,,1636.00,897.00,248.00,134.00,81.00,99.00,61.00,31.00,APPROVED
IL: AURORA,01/13/2015 10:52:00,,1642.00,894.00,249.00,135.00,80.00,99.00,62.00,30.00,APPROVED
IL: AURORA,01/13/2015 11:52:00,,1637.00,905.00,248.00,133.00,78.00,100.00,61.00,31.00,APPROVED
IL: AURORA,01/13/2015 12:52:00,,1642.00,909.00,254.00,136.00,81.00,100.00,63.00,30.00,APPROVED
IL: AURORA,01/13/2015 13:52:00,,1631.00,907.00,256.00,136.00,83.00,98.00,63.00,30.00,APPROVED
IL: AURORA,01/13/2015 14:53:00,,1602.00,884.00,250.00,135.00,79.00,97.00,64.00,31.00,APPROVED
IL: AURORA,01/13/2015 15:53:00,,1603.00,872.00,246.00,127.00,78.00,97.00,61.00,30.00,APPROVED
IL: AURORA,01/13/2015 16:53:00,,1592.00,871.00,246.00,129.00,80.00,95.00,60.00,32.00,APPROVED
IL: AURORA,01/13/2015 17:53:00,,1576.00,868.00,244.00,129.00,80.00,98.00,60.00,31.00,APPROVED
IL: AURORA,01/13/2015 18:53:00,,1572.00,859.00,242.00,131.00,79.00,95.00,61.00,31.00,APPROVED
IL: AURORA,01/13/2015 19:54:00,,1561.00,860.00,245.00,128.00,78.00,96.00,61.00,32.00,APPROVED
IL: AURORA,01/13/2015 20:54:00,,1516.00,843.00,238.00,131.00,78.00,95.00,59.00,29.00,APPROVED
IL: AURORA,01/13/2015 21:54:00,,1512.00,847.00,241.00,129.00,79.00,96.00,62.00,31.00,APPROVED
IL: AURORA,01/13/2015 22:54:00,,1550.00,857.00,244.00,131.00,79.00,97.00,60.00,31.00,APPROVED
IL: AURORA,01/13/2015 23:54:00,,1589.00,874.00,242.00,129.00,79.00,97.00,59.00,31.00,APPROVED
IL: AURORA,01/14/2015 00:55:00,,1622.00,888.00,242.00,132.00,80.00,97.00,60.00,30.00,APPROVED
IL: AURORA,01/14/2015 01:55:00,,1631.00,896.00,249.00,135.00,79.00,99.00,62.00,30.00,APPROVED
IL: AURORA,01/14/2015 02:55:00,,1658.00,918.00,254.00,140.00,82.00,101.00,61.00,32.00,APPROVED
IL: AURORA,01/14/2015 03:55:00,,1719.00,961.00,263.00,147.00,87.00,106.00,62.00,32.00,APPROVED
IL: AURORA,01/14/2015 04:56:00,,1753.00,1033.00,282.00,164.00,91.00,115.00,67.00,34.00,APPROVED
IL: AURORA,01/14/2015 05:56:00,,1822.00,1118.00,304.00,187.00,97.00,131.00,75.00,36.00,APPROVED
IL: AURORA,01/14/2015 06:56:00,,1875.00,1192.00,323.00,208.00,105.00,139.00,78.00,39.00,APPROVED
IL: AURORA,01/14/2015 07:56:00,,1973.00,1271.00,342.00,222.00,109.00,149.00,83.00,42.00,APPROVED
IL: AURORA,01/14/2015 08:56:00,,2005.00,1340.00,364.00,241.00,117.00,158.00,88.00,42.00,APPROVED
IL: AURORA,01/14/2015 09:57:00,,2016.00,1375.00,377.00,254.00,123.00,165.00,90.00,43.00,APPROVED
IL: AURORA,01/14/2015 10:57:00,,1998.00,1392.00,379.00,259.00,123.00,170.00,92.00,44.00,APPROVED
IL: AURORA,01/14/2015 11:57:00,,2107.00,1459.00,399.00,271.00,130.00,178.00,101.00,46.00,APPROVED
IL: AURORA,01/14/2015 12:57:00,,2062.00,1444.00,393.00,269.00,129.00,180.00,97.00,43.00,APPROVED
IL: AURORA,01/14/2015 13:58:00,,1988.00,1353.00,371.00,247.00,118.00,166.00,89.00,43.00,APPROVED
IL: AURORA,01/14/2015 14:58:00,,2017.00,1361.00,375.00,255.00,122.00,167.00,90.00,44.00,APPROVED
IL: AURORA,01/14/2015 15:58:00,,1957.00,1295.00,360.00,238.00,119.00,159.00,86.00,40.00,APPROVED
IL: AURORA,01/14/2015 16:58:00,,1845.00,1168.00,322.00,211.00,104.00,141.00,81.00,39.00,APPROVED
IL: AURORA,01/14/2015 17:58:00,,1791.00,1062.00,298.00,178.00,96.00,124.00,73.00,36.00,APPROVED
IL: AURORA,01/14/2015 18:59:00,,1742.00,1039.00,287.00,173.00,94.00,118.00,69.00,37.00,APPROVED
IL: AURORA,01/14/2015 19:59:00,,1711.00,995.00,278.00,163.00,90.00,113.00,69.00,35.00,APPROVED
IL: AURORA,01/14/2015 20:59:00,,1693.00,976.00,273.00,158.00,87.00,112.00,68.00,34.00,APPROVED
IL: AURORA,01/14/2015 21:59:00,,1721.00,1001.00,276.00,159.00,88.00,114.00,68.00,34.00,APPROVED
IL: AURORA,01/15/2015 16:28:00,,1795.00,1031.00,274.00,157.00,87.00,108.00,67.00,35.00,APPROVED
IL: AURORA,01/15/2015 17:28:00,,1819.00,1078.00,294.00,179.00,96.00,124.00,74.00,37.00,APPROVED
IL: AURORA,01/15/2015 18:29:00,,1801.00,1107.00,302.00,190.00,97.00,127.00,76.00,39.00,APPROVED
IL: AURORA,01/15/2015 19:29:00,,1778.00,1091.00,299.00,189.00,100.00,126.00,74.00,40.00,APPROVED
IL: AURORA,01/15/2015 20:29:00,,1754.00,1082.00,292.00,188.00,99.00,125.00,74.00,38.00,APPROVED
IL: AURORA,01/15/2015 21:29:00,,1733.00,1067.00,292.00,183.00,96.00,123.00,75.00,38.00,APPROVED
IL: AURORA,01/15/2015 22:29:00,,1726.00,1060.00,291.00,179.00,96.00,119.00,75.00,39.00,APPROVED
IL: AURORA,01/15/2015 23:30:00,,1762.00,1066.00,292.00,181.00,96.00,124.00,75.00,38.00,APPROVED
IL: AURORA,01/16/2015 00:30:00,,1806.00,1106.00,299.00,187.00,96.00,126.00,76.00,37.00,APPROVED
IL: AURORA,01/16/2015 01:30:00,,1842.00,1137.00,304.00,194.00,101.00,129.00,77.00,40.00,APPROVED
IL: AURORA,01/16/2015 02:30:00,,1881.00,1176.00,314.00,202.00,106.00,134.00,77.00,41.00,APPROVED
IL: AURORA,01/16/2015 03:31:00,,1914.00,1207.00,318.00,212.00,104.00,138.00,82.00,41.00,APPROVED
IL: AURORA,01/16/2015 04:31:00,,1933.00,1228.00,326.00,217.00,109.00,140.00,84.00,41.00,APPROVED
IL: AURORA,01/16/2015 05:31:00,,1956.00,1255.00,331.00,222.00,110.00,145.00,84.00,43.00,APPROVED
IL: AURORA,01/16/2015 06:31:00,,1987.00,1280.00,344.00,224.00,115.00,149.00,85.00,43.00,APPROVED
IL: AURORA,01/16/2015 07:31:00,,2003.00,1320.00,350.00,237.00,116.00,147.00,88.00,46.00,APPROVED
IL: AURORA,01/16/2015 08:32:00,,1994.00,1312.00,344.00,235.00,116.00,150.00,86.00,45.00,APPROVED
IL: AURORA,01/16/2015 09:32:00,,1962.00,1283.00,342.00,233.00,114.00,146.00,88.00,44.00,APPROVED
IL: AURORA,01/16/2015 10:32:00,,1981.00,1302.00,343.00,236.00,116.00,150.00,88.00,47.00,APPROVED
IL: AURORA,01/16/2015 11:32:00,,2017.00,1341.00,355.00,241.00,119.00,155.00,90.00,47.00,APPROVED
IL: AURORA,01/16/2015 12:32:00,,2018.00,1350.00,360.00,253.00,120.00,158.00,89.00,47.00,APPROVED
IL: AURORA,01/16/2015 13:33:00,,2017.00,1352.00,362.00,251.00,120.00,158.00,93.00,47.00,APPROVED
IL: AURORA,01/16/2015 14:33:00,,2015.00,1342.00,360.00,250.00,118.00,157.00,91.00,46.00,APPROVED
IL: AURORA,01/16/2015 15:33:00,,1985.00,1340.00,355.00,249.00,118.00,154.00,90.00,46.00,APPROVED
IL: AURORA,01/16/2015 16:33:00,,1946.00,1292.00,342.00,242.00,115.00,150.00,87.00,46.00,APPROVED
IL: AURORA,01/16/2015 17:34:00,,1868.00,1226.00,331.00,229.00,114.00,146.00,87.00,45.00,APPROVED
IL: AURORA,01/16/2015 18:34:00,,1740.00,1130.00,310.00,204.00,106.00,135.00,82.00,43.00,APPROVED
IL: AURORA,01/16/2015 19:34:00,,1692.00,1102.00,305.00,198.00,102.00,133.00,80.00,42.00,APPROVED
IL: AURORA,01/16/2015 20:34:00,,1675.00,1091.00,303.00,196.00,102.00,132.00,81.00,40.00,APPROVED
IL: AURORA,01/16/2015 21:34:00,,1626.00,1061.00,299.00,193.00,100.00,131.00,79.00,41.00,APPROVED
IL: AURORA,01/16/2015 22:35:00,,1652.00,1072.00,300.00,193.00,101.00,132.00,79.00,39.00,APPROVED
IL: AURORA,01/16/2015 23:35:00,,1705.00,1083.00,299.00,193.00,101.00,130.00,76.00,41.00,APPROVED
IL: AURORA,01/17/2015 00:35:00,,1681.00,1044.00,284.00,179.00,97.00,120.00,76.00,37.00,APPROVED
IL: AURORA,01/17/2015 01:35:00,,1673.00,976.00,274.00,162.00,90.00,111.00,70.00,35.00,APPROVED
IL: AURORA,01/17/2015 02:36:00,,1729.00,1004.00,278.00,161.00,86.00,114.00,69.00,34.00,APPROVED
IL: AURORA,01/17/2015 03:36:00,,1854.00,1144.00,307.00,193.00,101.00,130.00,76.00,40.00,APPROVED
IL: AURORA,01/17/2015 04:36:00,,1892.00,1227.00,333.00,220.00,110.00,143.00,84.00,42.00,APPROVED
IL: AURORA,01/17/2015 05:36:00,,1897.00,1250.00,331.00,226.00,111.00,143.00,85.00,44.00,APPROVED
IL: AURORA,01/17/2015 06:36:00,,1910.00,1236.00,333.00,234.00,111.00,146.00,86.00,44.00,APPROVED
IL: AURORA,01/17/2015 07:37:00,,1877.00,1234.00,333.00,224.00,109.00,143.00,84.00,43.00,APPROVED
IL: AURORA,01/17/2015 08:37:00,,1861.00,1188.00,324.00,217.00,108.00,140.00,84.00,41.00,APPROVED
IL: AURORA,01/17/2015 09:37:00,,1825.00,1149.00,321.00,201.00,103.00,133.00,81.00,42.00,APPROVED
IL: AURORA,01/17/2015 10:37:00,,1800.00,1144.00,311.00,197.00,103.00,129.00,79.00,39.00,APPROVED
IL: AURORA,01/17/2015 11:38:00,,1794.00,1129.00,311.00,200.00,102.00,131.00,77.00,40.00,APPROVED
IL: AURORA,01/17/2015 12:38:00,,1792.00,1126.00,310.00,196.00,101.00,129.00,78.00,40.00,APPROVED
IL: AURORA,01/17/2015 13:38:00,,1774.00,1107.00,302.00,197.00,100.00,128.00,77.00,40.00,APPROVED
IL: AURORA,01/17/2015 14:38:00,,1778.00,1112.00,307.00,194.00,101.00,129.00,78.00,40.00,APPROVED
IL: AURORA,01/17/2015 15:38:00,,1781.00,1115.00,303.00,195.00,102.00,131.00,77.00,40.00,APPROVED
IL: AURORA,01/17/2015 16:39:00,,1755.00,1122.00,302.00,193.00,101.00,130.00,80.00,41.00,APPROVED